This is the latest recevied weather packets stored in our database for station/object WC4PEM-9. If no packets are shown the sender has not sent any weather packets the latest 10 day(s).
| Time | Temp. | Humidity | Pressure | Rain* | Wind** | Luminosity | Snow |
|---|---|---|---|---|---|---|---|
| 1787431745 | 32.78° C | 65% | 1013.8 hPa | 0 mm | - | - | - |
| 1787431650 | 32.78° C | 65% | 1013.8 hPa | 0 mm | - | - | - |
| 1787431350 | 32.78° C | 67% | 1013.8 hPa | 0 mm | - | - | - |
| 1787431050 | 32.22° C | 65% | 1013.9 hPa | 0 mm | - | - | - |
| 1787430750 | 32.78° C | 66% | 1014.1 hPa | 0 mm | - | - | - |
| 1787430530 | 32.78° C | 68% | 1014.1 hPa | 0 mm | - | - | - |
| 1787430450 | 32.78° C | 68% | 1014.1 hPa | 0 mm | - | - | - |
| 1787430212 | 32.22° C | 67% | 1014.2 hPa | 0 mm | - | - | - |
| 1787430150 | 32.22° C | 67% | 1014.2 hPa | 0 mm | - | - | - |
| 1787429968 | 32.22° C | 67% | 1014.4 hPa | 0 mm | - | - | - |
| 1787429850 | 32.22° C | 67% | 1014.4 hPa | 0 mm | - | - | - |
| 1787429550 | 32.22° C | 66% | 1014.5 hPa | 0 mm | - | - | - |
| 1787429250 | 32.22° C | 68% | 1014.2 hPa | 0 mm | - | - | - |
| 1787428950 | 32.22° C | 65% | 1014.5 hPa | 0 mm | - | - | - |
| 1787428699 | 32.22° C | 66% | 1014.4 hPa | 0 mm | - | - | - |
| 1787428650 | 32.22° C | 66% | 1014.4 hPa | 0 mm | - | - | - |
| 1787428350 | 32.78° C | 65% | 1014.7 hPa | 0 mm | - | - | - |
| 1787428050 | 32.78° C | 64% | 1014.8 hPa | 0 mm | - | - | - |
| 1787427855 | 33.89° C | 59% | 1014.8 hPa | 0 mm | - | - | - |
| 1787427751 | 33.89° C | 59% | 1014.8 hPa | 0 mm | - | - | - |
| 1787427450 | 34.44° C | 55% | 1014.5 hPa | 0 mm | - | - | - |
| 1787427151 | 33.89° C | 54% | 1014.3 hPa | 0 mm | - | - | - |
| 1787426850 | 33.89° C | 52% | 1014.2 hPa | 0 mm | - | - | - |
| 1787426551 | 33.89° C | 54% | 1014.5 hPa | 0 mm | - | - | - |
| 1787426251 | 34.44° C | 53% | 1014.5 hPa | 0 mm | - | - | - |
* Rain latest hour (hover to see other rain measurements)
** Current wind speed in m/s (hover to see current wind gust speed)